NOAA 16 DEB

Satellite information

Favourite Embed

Satellite Type and Status

DEBRISIN ORBIT

Key statistics

Satellite NOAA 16 DEB at a glance.

Uptime

9055

Days in orbit

Revolutions

≈ 14.6

Per day

Orbit

SSO

Sun Synchronous Orbit

Inclination

99.0

Latest

Satellite identification and parameters

Extended collection of information and parameters for NOAA 16 DEB.

Object identification

Identified? True

Debris? True

Object name: NOAA 16 DEB

International designator: 2000-055GS

Object number (NORAD): 41290

Object ID (CCSDS): 41290

Country: UNITED STATES OF AMERICA (US)

Current information (Y/N): Y

RCS size: SMALL

Orbital parameters

Period: 98.706 minutes

Inclination: 99.0144 deg

SMA: 7074.919 km

Apoapsis: 710.333 km

Periapsis: 683.236 km

RAAN: 37.4533 deg

Eccentricy: 0.001915

Argument of periapsis: 77.2439 deg

Mean anomaly: 283.0897 deg

Mean motion: 14.58883288 rev/day

Mean motion (dot): 0.00010909 rev/day2

B* drag term: 0.0023317 1/REarth

Two-line elements (TLE)

Creation date: July 6, 2025, 6:05 p.m.

Reference frame: TEME

Reference center: EARTH

Epoch: July 6, 2025, 8:50 a.m. UTC

TLE line 0: 0 NOAA 16 DEB

TLE line 1: 1 41290U 00055GS 25187.36867492 .00010909 00000-0 23317-2 0 9991

TLE line 2: 2 41290 99.0144 37.4533 0019150 77.2439 283.0897 14.58883288496087

Live tracking on map

Real-time ground track for satellite NOAA 16 DEB.

In-orbit conjunctions

A list of the most updated potential collisions computed for object NOAA 16 DEB.

Target Orbit TCA Probability of collision Miss distance Type
CZ-6A DEB SSO 2025-01-24 10:03:18 0.0001554349 79.0 (m) DEBRIS
IRIDIUM 33 DEB LEO 2024-09-02 05:49:49 0.0001128163 355.0 (m) DEBRIS
SL-8 R/B LEO 2024-08-16 02:59:42 0.0001577523 889.0 (m) ROCKET BODY

Associated space launch

The NOAA K, L and M POES satellites begin the fifth generation of improved environmental monitoring in support of NOAA missions. The instrument payload has significant improvements and additions/deletions. The instrument changes have effected the spacecraft subsystems and data formats.

NOAA 16 DEB was lifted into orbit during the mission ‘Titan II SLV | NOAA 16’, on board a Titan II SLV space rocket.

The launch took place on Sept. 21, 2000, 10:22 a.m. from Space Launch Complex 4W.

For more information about the launch, click the button.

Launch to space Titan II SLV | NOAA 16
Titan II SLV | NOAA 16

Agency: N/A

Status: Launch Successful

Launch date: Sept. 21, 2000, 10:22 a.m. UTC

Rocket: Titan II SLV

Launch pad: Space Launch Complex 4W

Location: Vandenberg SFB, CA, USA

...

Latest news about this satellite

There are no fresh news available about this satellite. Check back as we update our databases every day.


Newsletter sign-up

Weekly statistics, charts and insights to help you stay on top of the space industry.